CANAVERAL NM East of Cape Canaveral, FL (41009)

Conditions for Sunday

Daily
Weekly
Monthly
Marine Data Graph

Marine & Boating Location Search

Enter a coastal zip code for marine weather.

General Information

Location: 28.522 North -80.188 West
Buoy Type: 3-meter discus buoy
Buoy Hull: 3D86
Payload: AMPS payload
Owned by: NDBC
Windspeed: Measured by obtained from anemometer
Sea Surface: Measured by Intake

Weather and Wave Data

Time Temp Humidity Wind Dominant Wave Wind Wave Wave Swell Pressure
  Air
(°F)
Water
(°F)
  Dir Speed
(kts)
Speed
(mph)
Period
(sec)
Height
(ft)
Range
(ft)
Period
(sec)
Height
(ft)
Range
(ft)
Period
(sec)
Height
(ft)
Range
(ft)
Atmo.
(in)
Tend.
(in)
20:00 84 85 66 SSE 5.8 6.7 - - - - - - 30.06 -
20:10 84 85 66 SSE 7.8 8.9 - - - - - - 30.06 -
20:20 84 84 66 SE 5.8 6.7 - - - - - - 30.06 -
20:30 84 84 66 SE 5.8 6.7 - - - - - - 30.06 -
20:40 84 84 66 SE 5.8 6.7 - - - - - - 30.06 -
20:50 84 84 66 SE 5.8 6.7 8 1.64 exactly 1.6 4 1.64 0.82 - 2.46 8 1.64 0.82 - 2.46 30.06 -
21:10 84 84 65 SE 7.8 8.9 - - - - - - 30.06 -
21:20 83 84 68 SSE 5.8 6.7 - - - - - - 30.06 -
21:30 83 84 68 SSE 7.8 8.9 - - - - - - 30.06 -
21:40 83 84 69 SE 5.8 6.7 - - - - - - 30.06 -
21:50 83 84 70 SE 7.8 8.9 8 1.64 exactly 1.6 4 1.64 0.82 - 2.46 8 1.64 0.82 - 2.46 30.06 -
22:00 83 84 71 SE 7.8 8.9 - - - - - - 30.07 +0.03
22:10 83 84 71 SE 7.8 8.9 - - - - - - 30.08 -
22:20 83 84 71 SE 5.8 6.7 - - - - - - 30.07 -
22:30 83 84 70 SE 7.8 8.9 - - - - - - 30.08 -
22:40 83 84 70 SE 5.8 6.7 - - - - - - 30.08 -
22:50 83 83 70 SE 5.8 6.7 8 1.64 exactly 1.6 - - - 8 1.64 0.82 - 2.46 30.08 -
23:00 83 83 70 SE 5.8 6.7 - - - - - - 30.08 +0.02
23:10 83 83 70 SE 5.8 6.7 - - - - - - 30.08 -
23:20 83 83 70 SE 5.8 6.7 - - - - - - 30.09 -
23:30 83 83 70 SE 5.8 6.7 - - - - - - 30.08 -
23:40 83 83 71 SE 5.8 6.7 - - - - - - 30.08 -
00:10 83 83 71 SE 5.8 6.7 - - - - - - 30.08 -
00:20 83 83 72 SE 5.8 6.7 - - - - - - 30.08 -
00:30 83 83 73 SE 7.8 8.9 - - - - - - 30.08 -
00:40 83 83 73 SE 7.8 8.9 - - - - - - 30.07 -
00:50 83 83 71 SE 7.8 8.9 8 1.31 exactly 1.3 - - - 8 1.64 0.82 - 2.46 30.07 -
01:10 83 83 71 ESE 7.8 8.9 - - - - - - 30.06 -
01:20 83 83 70 ESE 7.8 8.9 - - - - - - 30.07 -
01:30 84 83 67 ESE 7.8 8.9 - - - - - - 30.06 -
01:40 84 83 67 SE 7.8 8.9 - - - - - - 30.06 -
01:50 83 83 71 SE 7.8 8.9 8 1.31 exactly 1.3 - - - 8 1.64 0.82 - 2.46 30.07 -
02:00 83 83 73 ESE 7.8 8.9 - - - - - - 30.06 -0.02
02:10 83 83 73 SE 9.7 11.2 - - - - - - 30.06 -
02:20 83 83 72 SE 9.7 11.2 - - - - - - 30.06 -
02:30 83 83 71 SE 9.7 11.2 - - - - - - 30.05 -
02:40 84 83 67 SE 9.7 11.2 - - - - - - 30.05 -
03:10 83 83 71 ESE 9.7 11.2 - - - - - - 30.04 -
03:20 83 83 71 SE 9.7 11.2 - - - - - - 30.04 -
03:30 83 83 70 SE 9.7 11.2 - - - - - - 30.04 -
03:50 83 83 70 SE 9.7 11.2 8 1.64 exactly 1.6 5 1.64 0.82 - 2.46 8 1.64 0.82 - 2.46 30.04 -
04:00 83 83 70 SE 9.7 11.2 - - - - - - 30.06 -0.03
04:10 83 83 70 SE 9.7 11.2 - - - - - - 30.04 -
04:20 83 83 70 SE 9.7 11.2 - - - - - - 30.04 -
04:30 83 83 71 SE 9.7 11.2 - - - - - - 30.04 -
04:50 83 83 71 SE 9.7 11.2 8 1.64 exactly 1.6 3 1.64 0.82 - 2.46 8 1.64 0.82 - 2.46 30.04 -
05:10 83 83 71 SE 7.8 8.9 - - - - - - 30.04 -
05:30 83 83 71 SE 7.8 8.9 - - - - - - 30.04 -
05:40 83 83 70 SE 7.8 8.9 - - - - - - 30.05 -
05:50 83 83 70 SSE 7.8 8.9 8 1.64 exactly 1.6 - - - 8 1.64 0.82 - 2.46 30.05 -
06:00 83 83 70 SSE 7.8 8.9 - - - - - - 30.05 -
06:10 83 83 71 SSE 7.8 8.9 - - - - - - 30.05 -
06:20 83 83 70 SSE 5.8 6.7 - - - - - - 30.05 -
06:30 83 83 71 SSE 5.8 6.7 - - - - - - 30.06 -
06:40 83 83 71 SSE 5.8 6.7 - - - - - - 30.06 -
06:50 83 83 70 SSE 3.9 4.5 8 1.64 exactly 1.6 - - - 8 1.64 0.82 - 2.46 30.06 -
07:10 83 83 69 South 3.9 4.5 - - - - - - 30.06 -
07:20 83 83 70 SSE 3.9 4.5 - - - - - - 30.06 -
07:30 83 83 70 SSE 3.9 4.5 - - - - - - 30.07 -
07:40 83 83 70 SSE 3.9 4.5 - - - - - - 30.08 -
07:50 83 83 70 South 3.9 4.5 8 1.64 exactly 1.6 - - - 8 1.64 0.82 - 2.46 30.08 -
08:20 84 83 66 South 3.9 4.5 - - - - - - 30.09 -
08:40 84 83 66 SSE 3.9 4.5 - - - - - - 30.09 -
09:10 83 83 69 South 3.9 4.5 - - - - - - 30.09 -
09:20 84 83 67 SSE 3.9 4.5 - - - - - - 30.09 -
09:30 84 83 67 SSE 3.9 4.5 - - - - - - 30.09 -
09:40 84 83 70 SE 3.9 4.5 - - - - - - 30.09 -
09:50 84 83 68 SE 3.9 4.5 8 1.64 exactly 1.6 - - - 8 1.64 0.82 - 2.46 30.09 -
10:10 84 83 69 SE 3.9 4.5 - - - - - - 30.09 -
10:20 84 83 67 SE 3.9 4.5 - - - - - - 30.09 -
10:40 84 83 66 SE 3.9 4.5 - - - - - - 30.08 -
10:50 84 83 66 SE 3.9 4.5 7 1.64 exactly 1.6 - - - 7 1.64 0.82 - 2.46 30.08 -
11:00 84 84 67 SE 3.9 4.5 - - - - - - 30.08 -
11:10 84 84 68 SE 5.8 6.7 - - - - - - 30.08 -
11:20 84 84 66 SE 5.8 6.7 - - - - - - 30.08 -
11:30 84
-
65 SE 5.8 6.7 - - - - - - 30.07 -
11:40 84 84 65 SE 5.8 6.7 - - - - - - 30.08 -
11:50 84 84 66 SE 5.8 6.7 7 1.64 exactly 1.6 - - - 7 1.64 0.82 - 2.46 30.08 -
12:10 84 84 67 SE 5.8 6.7 - - - - - - 30.08 -
12:30 84 84 64 SSE 5.8 6.7 - - - - - - 30.09 -
13:10 84 85 64 SSE 5.8 6.7 - - - - - - 30.09 -
13:20 84 85 63 SSE 5.8 6.7 - - - - - - 30.09 -
13:30 84 85 63 SSE 5.8 6.7 - - - - - - 30.09 -
13:40 84 85 61 SSE 5.8 6.7 - - - - - - 30.09 -
13:50 84 84 62 SSE 5.8 6.7 8 1.64 exactly 1.6 - - - 8 1.64 0.82 - 2.46 30.08 -
14:10 84 85 63 SSE 5.8 6.7 - - - - - - 30.08 -
14:30 84 85 64 SE 5.8 6.7 - - - - - - 30.07 -
14:40 84 85 65 SE 5.8 6.7 - - - - - - 30.07 -
14:50 84 85 63 SE 7.8 8.9 8 1.31 exactly 1.3 - - - 8 1.64 0.82 - 2.46 30.06 -
15:00 84 85 63 SE 7.8 8.9 - - - - - - 30.06 -0.02
15:20 84 85 63 SE 9.7 11.2 - - - - - - 30.05 -
15:30 85 85 62 SE 7.8 8.9 - - - - - - 30.05 -
15:40 85 85 62 SE 7.8 8.9 - - - - - - 30.05 -
15:50 85 85 61 SE 7.8 8.9 8 1.64 exactly 1.6 - - - 8 1.64 0.82 - 2.46 30.05 -
16:10 85 85 62 SE 7.8 8.9 - - - - - - 30.05 -
16:20 85 85 62 SE 7.8 8.9 - - - - - - 30.04 -
16:40 85 85 63 SE 7.8 8.9 - - - - - - 30.04 -
17:10 85 85 59 SSE 7.8 8.9 - - - - - - 30.04 -
17:20 84 85 66 SSE 7.8 8.9 - - - - - - 30.04 -
17:40 84 85 64 SSE 7.8 8.9 - - - - - - 30.04 -
18:10 84 84 65 SSE 9.7 11.2 - - - - - - 30.04 -
18:20 84 84 63 South 7.8 8.9 - - - - - - 30.04 -
18:30 84 84 66 South 5.8 6.7 - - - - - - 30.05 -
18:40 84 84 67 South 7.8 8.9 - - - - - - 30.05 -
18:50 84 85 65 South 9.7 11.2 8 1.31 exactly 1.3 - - - 8 1.64 0.82 - 2.46 30.05 -
19:10 84 84 67 South 9.7 11.2 - - - - - - 30.06 -
19:20 84 84 68 South 9.7 11.2 - - - - - - 30.06 -
19:30 84 84 68 South 9.7 11.2 - - - - - - 30.06 -
19:40 84 84 68 South 7.8 8.9 - - - - - - 30.06 -
19:50 84 84 66 South 7.8 8.9 8 1.31 exactly 1.3 - - - 8 1.64 0.82 - 2.46 30.06 -
20:30 84 84 66 South 5.8 6.7 - - - - - - 30.07 -
20:40 84 84 66 SSE 5.8 6.7 - - - - - - 30.07 -
20:50 84 84 65 SSE 3.9 4.5 7 1.31 exactly 1.3 - - - 7 1.64 0.82 - 2.46 30.07 -
21:00 84 84 65 SE 3.9 4.5 - - - - - - 30.06 +0.04
21:10 84 84 65 SE 3.9 4.5 - - - - - - 30.06 -
21:20 83 84 69 ESE 3.9 4.5 - - - - - - 30.06 -
21:30 83 84 69 SE 5.8 6.7 - - - - - - 30.06 -
21:40 83 84 70 SE 7.8 8.9 - - - - - - 30.06 -
21:50 83 84 69 SSE 7.8 8.9 8 1.31 exactly 1.3 - - - 8 1.64 0.82 - 2.46 30.06 -
22:10 83 84 66 SE 7.8 8.9 - - - - - - 30.06 -
22:20 83 84 66 SE 7.8 8.9 - - - - - - 30.06 -
22:30 83 84 68 SE 7.8 8.9 - - - - - - 30.06 -
22:40 83 84 69 SE 7.8 8.9 - - - - - - 30.06 -
23:00 83 84 70 SE 7.8 8.9 - - - - - - 30.06 -
23:10 83 84 73 SE 7.8 8.9 - - - - - - 30.08 -
23:20 82 84 74 SSE 7.8 8.9 - - - - - - 30.06 -
23:30 83 84 71 SSE 7.8 8.9 - - - - - - 30.06 -
23:40 83 84 71 SE 7.8 8.9 - - - - - - 30.06 -
23:50 83 84 70 SE 5.8 6.7 8 1.31 exactly 1.3 - - - 8 1.64 0.82 - 2.46 30.06 -
00:10 83 84 65 SE 7.8 8.9 - - - - - - 30.06 -
00:20 83 84 65 SE 5.8 6.7 - - - - - - 30.06 -
00:30 83 84 66 SE 5.8 6.7 - - - - - - 30.05 -
00:40 83 84 66 SE 7.8 8.9 - - - - - - 30.05 -
00:50 83 84 65 SE 7.8 8.9 7 1.31 exactly 1.3 - - - 7 1.64 0.82 - 2.46 30.06 -
01:10 83 84 64 SE 7.8 8.9 - - - - - - 30.06 -
01:20 83 84 64 SE 7.8 8.9 - - - - - - 30.05 -
01:30 83 83 67 SE 7.8 8.9 - - - - - - 30.05 -
01:40 83 83 68 SE 7.8 8.9 - - - - - - 30.05 -
01:50 83 83 69 SE 9.7 11.2 8 1.31 exactly 1.3 - - - 8 1.64 0.82 - 2.46 30.05 -
02:10 83 83 70 SE 9.7 11.2 - - - - - - 30.04 -
02:30 83 83 67 SE 7.8 8.9 - - - - - - 30.03 -
02:40 83 83 66 SE 7.8 8.9 - - - - - - 30.03 -
02:50 83 83 67 SE 7.8 8.9 7 1.31 exactly 1.3 - - - 7 1.64 0.82 - 2.46 30.02 -
03:30 83
-
67 SE 5.8 6.7 - - - - - - 30.01 -
03:50 83 83 67 SE 5.8 6.7 8 1.31 exactly 1.3 - - - 8 1.64 0.82 - 2.46 30.01 -

Detailed Wave Spectra

Time Water Depth Wave Height Spectral Peak Period Average Wave Period Sampling Interval Wave Record
21:00 138 ft 1.71 ft 7.7 sec 4.7 sec 0.6 sec 2400 sec
00:00 138 ft 1.48 ft 8.3 sec 5.4 sec 0.6 sec 2400 sec
01:00 138 ft 1.41 ft 7.7 sec 5.5 sec 0.6 sec 2400 sec
03:00 138 ft 1.35 ft 9.1 sec 5.1 sec 0.6 sec 2400 sec
05:00 138 ft 1.57 ft 8.3 sec 4.5 sec 0.6 sec 2400 sec
07:00 138 ft 1.64 ft 8.3 sec 5.0 sec 0.6 sec 2400 sec
08:00 138 ft 1.71 ft 7.7 sec 4.9 sec 0.6 sec 2400 sec
12:00 138 ft 1.67 ft 7.1 sec 5.0 sec 0.6 sec 2400 sec
13:00 138 ft 1.57 ft 8.3 sec 5.1 sec 0.6 sec 2400 sec
16:00 138 ft 1.48 ft 7.7 sec 4.9 sec 0.6 sec 2400 sec
17:00 138 ft 1.41 ft 7.7 sec 4.9 sec 0.6 sec 2400 sec
18:00 138 ft 1.41 ft 8.3 sec 5.0 sec 0.6 sec 2400 sec
19:00 138 ft 1.35 ft 8.3 sec 5.1 sec 0.6 sec 2400 sec
20:00 138 ft 1.28 ft 8.3 sec 4.7 sec 0.6 sec 2400 sec
22:00 138 ft 1.38 ft 7.7 sec 4.7 sec 0.6 sec 2400 sec
00:00 138 ft 1.31 ft 8.3 sec 5.0 sec 0.6 sec 2400 sec
01:00 138 ft 1.31 ft 7.1 sec 5.5 sec 0.6 sec 2400 sec
02:00 138 ft 1.25 ft 7.7 sec 4.9 sec 0.6 sec 2400 sec
03:00 138 ft 1.31 ft 7.1 sec 4.5 sec 0.6 sec 2400 sec